Probability
0 0 0 0 0 0 0 0 0 0 0 0 0 0 0 0 0 0 0 0 0 0 0 0 0 0 0 0 0 0 0 0 0 0 0 0 0 0 0 0 0 0 0 0 0 0 0 0 0
0 0 0 0 0 0 0 0 0 0 0 0 0 0 0 0 0 0 0 0 0 0 0 0 0 0 0 0 0 0 0 0 0 0 0 0 0 0 0 0 0 0 0 0 0 0 0 0 0
0 0 0 0 0 0 0 0 0 0 0 0 0 0 0 0 0 0 0 0 0 0 0 0 0 0 0 0 0 0 0 0 0 0 0 0 0 0 0 0 0 0 0 0 0 0 0 0 0
0 0 0 0 0 0 0 0 0 0 0 0 0 0 0 0 0 0 0 0 0 0 0 0 0 0 0 0 0 0 0 0 0 0 0 0 0 0 0 0 0 0 0 0 0 0 0 0 0
0 0 0 0 0 0 0 0 0 0 0 0 0 0 0 0 0 0 0 0 0 0 0 0 0 0 0 0 0 0 0 0 0 0 0 0 0 0 0 0 0 0 0 0 0 0 0 0 0
0 0 0 0 0 0 0 0 0 0 0 0 0 0 0 0 0 0 0 0 0 0 0 0 0 0 0 0 0 0 0 0 0 0 0 0 0 0 0 0 0 0 0 0 0 0 0 0 0
0 0 0 0 0 0 0 0 0 0 0 0 0 0 0 0 0 0 0 0 0 0 0 0 0 0 0 0 0 0 0 0 0 0 0 0 0 0 0 0 0 0 0 0 0 0 0 0 0
0 0 0 0 0 0 0 0 0 0 0 0 0 0 0 0 0 0 0 0 0 0 0 0 0 0 0 0 0 0 0 0 0 0 0 0 0 0 0 0 0 0 0 0 0 0 0 0 0
0 0 0 0 0 0 0 0 0 0 0 0 0 0 0 0 0 0 0 0 0 0 0 0 0 0 0 0 0 0 0 0 0 0 0 0 0 0 0 0 0 0 0 0 0 0 0 0 0
0 0 0 0 0 0 0 0 0 0 0 0 0 0 0 0 0 0 0 0 0 0 0 0 0 0 0 0 0 0 0 0 0 0 0 0 0 0 0 0 0 0 0 0 0 0 0 0 0
0 0 0 0 0 0 0 0 0 0 0 0 0 0 0 0 0 0 0 0 0 0 0 0 0 0 0 0 0 0 0 0 0 0 0 0 0 0 0 0 0 0 0 0 0 0 0 0 0
0 0 0 0 0 0 0 0 0 0 0 0 0 0 0 0 0 0 0 0 0 0 0 0 0 0 0 0 0 0 0 0 0 0 0 0 0 0 0 0 0 0 0 0 0 0 0 0 0
0 0 0 0 0 0 0 0 0 0 0 0 0 0 0 0 0 0 0 0 0 0 0 0 0 0 0 0 0 0 0 0 0 0 0 0 0 0 0 0 0 0 0 0 0 0 0 0 0
0 0 0 0 0 0 0 0 0 0 0 0 0 0 0 0 0 0 0 0 0 0 0 0 0 0 0 0 0 0 0 0 0 0 0 0 0 0 0 0 0 0 0 0 0 0 0 0 0
0 0 0 0 0 0 0 0 0 0 0 0 0 0 0 0 0 0 0 0 0 0 0 0 0 0 0 0 0 0 0 0 0 0 0 0 0 0 0 0 0 0 0 0 0 0 0 0 0
0 0 0 0 0 0 0 0 0 0 0 0 0 0 0 0 0 0 0 0 0 0 0 0 0 0 0 0 0 0 0 0 0 0 0 0 0 0 0 0 0 0 0 0 0 0 0 0 0
0 0 0 0 0 0 0 0 0 0 0 0 0 0 0 0 0 0 0 0 0 0 0 0 0 0 0 0 0 0 0 0 0 0 0 0 0 0 0 0 0 0 0 0 0 0 0 0 0
0 0 0 0 0 0 0 0 0 0 0 0 0 0 0 0 0 0 0 0 0 0 0 0 0 0 0 0 0 0 0 0 0 0 0 0 0 0 0 0 0 0 0 0 0 0 0 0 0
0 0 0 0 0 0 0 0 0 0 0 0 0 0 0 0 0 0 0 0 0 0 0 0 0 0 0 0 0 0 0 0 0 0 0 0 0 0 0 0 0 0 0 0 0 0 0 0 0
0 0 0 0 0 0 0 0 0 0 0 0 0 0 0 0 0 0 0 0 0 0 0 0 0 0 0 0 0 0 0 0 0 0 0 0 0 0 0 0 0 0 0 0 0 0 0 0 0
0 0 0 0 0 0 0 0 0 0 0 0 0 0 0 0 0 0 0 0 0 0 0 0 0 0 0 0 0 0 0 0 0 0 0 0 0 0 0 0 0 0 0 0 0 0 0 0 0
0 0 0 0 0 0 0 0 0 0 0 0 0 0 0 0 0 0 0 0 0 0 0 0 0 0 0 0 0 0 0 0 0 0 0 0 0 0 0 0 0 0 0 0 0 0 0 0 0
0 0 0 0 0 0 0 0 0 0 0 0 0 0 0 0 0 0 0 0 0 0 0 0 0 0 0 0 0 0 0 0 0 0 0 0 0 0 0 0 0 0 0 0 0 0 0 0 0
0 0 0 0 0 0 0 0 0 0 0 0 0 0 0 0 0 0 0 0 0 0 0 0 0 0 0 0 0 0 0 0 0 0 0 0 0 0 0 0 0 0 0 0 0 0 0 0 0
0 0 0 0 0 0 0 0 0 0 0 0 0 0 0 0 0 0 0 0 0 0 0 0 0 0 0 0 0 0 0 0 0 0 0 0 0 0 0 0 0 0 0 0 0 0 0 0 0
0 0 0 0 0 0 0 0 0 0 0 0 0 0 0 0 0 0 0 0 0 0 0 0 0 0 0 0 0 0 0 0 0 0 0 0 0 0 0 0 0 0 0 0 0 0 0 0 0
0 0 0 0 0 0 0 0 0 0 0 0 0 0 0 0 0 0 0 0 0 0 0 0 0 0 0 0 0 0 0 0 0 0 0 0 0 0 0 0 0 0 0 0 0 0 0 0 0
0 0 0 0 0 0 0 0 0 0 0 0 0 0 0 0 0 0 0 0 0 0 0 0 0 0 0 0 0 0 0 0 0 0 0 0 0 0 0 0 0 0 0 0 0 0 0 0 0
0 0 0 0 0 0 0 0 0 0 0 0 0 0 0 0 0 0 0 0 0 0 0 0 0 0 0 0 0 0 0 0 0 0 0 0 0 0 0 0 0 0 0 0 0 0 0 0 0
0 0 0 0 0 0 0 0 0 0 0 0 0 0 0 0 0 0 0 0 0 0 0 0 0 0 0 0 0 0 0 0 0 0 0 0 0 0 0 0 0 0 0 0 0 0 0 0 0
Wind_Speed
9 10 7 3 3 4 6 1 3 5 3 4 4 2 4 5 4 5 6 8 14 15 15 16 18 16 14 13 12 11 10 10 10 11 11 11 11 12 12 12 13 13 14 14 15 15 16 17 17
9 7 4 3 4 4 4 2 5 9 7 5 3 1 2 4 6 10 7 9 15 15 15 14 19 17 16 14 13 12 11 10 10 10 10 10 11 11 11 11 12 12 13 13 13 14 15 15 16
9 7 4 3 6 7 2 5 10 7 5 3 4 2 3 6 10 10 8 13 13 13 14 15 21 18 17 15 14 13 12 11 10 11 10 10 10 10 10 10 11 11 11 12 12 13 13 14 15
5 3 4 5 9 9 1 7 9 7 3 2 3 3 3 6 7 10 12 13 13 12 13 16 21 19 18 16 15 14 13 12 11 11 10 9 9 9 9 9 9 9 10 10 11 11 12 13 14
3 4 5 7 11 10 3 7 5 4 7 7 4 3 7 5 10 14 13 12 12 12 13 16 21 20 18 17 16 15 14 13 12 11 10 10 9 9 8 8 8 8 8 9 9 10 10 11 12
4 4 6 7 10 6 4 8 5 3 4 7 7 5 5 7 11 13 11 10 11 11 13 15 21 21 19 18 17 16 15 14 13 12 11 10 9 9 8 7 7 6 7 7 7 8 9 10 11
4 4 7 10 10 7 3 7 3 2 5 4 8 4 7 7 9 12 11 9 9 10 12 13 12 15 19 19 18 17 16 15 13 12 11 10 9 8 8 7 6 5 5 5 5 6 6 7 9
3 4 8 9 9 7 2 4 2 2 4 0 8 5 4 10 11 11 10 8 8 9 10 13 11 10 9 11 18 18 17 16 15 13 12 11 9 8 7 6 5 4 4 4 3 3 4 4 6
3 4 7 9 8 6 4 3 3 2 4 1 4 2 6 15 13 11 8 8 8 10 9 11 13 12 10 9 14 15 16 16 15 12 13 10 5 5 5 6 7 5 4 3 2 1 1 1 1
3 4 9 8 6 6 6 3 3 4 5 6 6 6 9 13 12 13 13 14 14 13 12 9 12 13 12 11 10 7 8 8 8 6 7 5 5 5 6 9 8 7 5 5 4 4 4 3 1
5 6 8 7 5 5 6 7 6 5 8 10 11 14 14 13 14 14 15 15 14 13 12 11 10 11 11 8 9 6 5 6 7 9 9 6 5 4 4 4 4 4 6 4 5 5 3 1 1
5 8 8 4 3 2 5 7 7 10 11 9 7 6 19 17 17 18 17 14 13 12 14 12 11 9 10 8 7 7 6 7 7 8 11 7 4 4 4 4 5 5 4 4 4 3 4 3 3
7 9 6 4 3 5 8 10 9 13 12 9 9 6 16 17 16 15 14 13 13 14 15 13 12 11 9 8 6 7 6 7 7 6 8 8 6 6 5 4 5 5 4 5 4 4 5 4 4
5 7 8 8 6 5 7 9 8 14 10 10 10 10 11 16 15 13 14 15 16 16 15 14 13 12 10 8 7 6 6 7 7 7 8 9 7 7 6 6 5 5 5 5 5 5 4 3 3
3 7 10 11 8 3 3 8 10 17 11 10 10 10 11 12 14 15 15 15 14 13 15 15 14 13 12 11 9 7 6 7 7 8 9 10 9 8 7 6 6 6 5 6 4 5 3 3 3
5 5 6 4 7 5 2 8 7 7 6 9 10 9 11 13 15 15 14 14 12 11 14 15 14 14 13 11 10 7 7 7 7 8 9 11 11 10 8 7 6 7 6 5 5 4 4 4 4
7 6 6 1 6 5 5 11 10 10 11 9 8 8 9 10 15 16 16 15 14 13 13 14 14 14 13 12 9 8 7 8 8 8 8 10 12 11 8 7 7 7 6 6 6 5 5 5 5
7 8 8 8 2 4 7 14 16 10 8 6 4 3 3 5 7 11 15 14 14 12 12 13 13 12 11 9 8 7 8 8 8 8 9 11 11 12 10 7 8 8 6 7 6 6 6 4 4
7 8 10 11 3 2 8 14 17 11 4 6 6 7 7 6 6 1 6 10 10 11 11 12 13 13 11 10 11 11 11 9 8 8 11 12 12 13 11 9 9 9 9 9 9 7 7 6 4
6 9 10 8 4 5 9 13 14 2 5 4 5 6 7 8 8 7 3 5 8 10 10 11 13 14 13 11 10 8 7 7 7 7 9 12 13 14 13 12 10 10 9 10 11 8 6 6 7
8 7 6 7 9 9 7 9 2 6 8 7 7 7 7 7 7 6 4 2 5 7 9 9 11 12 13 11 6 5 5 5 7 9 9 11 13 14 13 14 12 11 11 11 13 11 12 9 8
6 4 5 6 6 6 5 6 6 6 8 7 7 7 6 6 5 5 4 2 2 6 7 8 8 9 10 10 9 10 10 12 12 8 7 9 12 13 14 14 14 12 11 11 13 13 10 9 8
3 3 5 6 5 6 5 5 8 4 7 7 7 6 6 6 7 6 5 4 1 2 5 6 7 8 8 10 11 10 11 10 6 6 8 10 11 13 14 14 14 13 12 12 12 12 12 11 10
5 6 7 3 2 4 4 4 7 1 6 7 7 6 7 7 8 8 7 6 4 2 2 4 5 6 7 9 10 12 13 10 9 9 9 9 8 10 14 13 13 13 12 12 12 11 14 13 12
4 4 2 2 3 4 2 2 7 1 7 8 7 6 7 7 7 7 8 7 6 4 0 3 4 6 6 8 10 11 12 12 12 11 9 9 8 9 12 14 14 13 13 11 11 12 13 13 12
2 2 3 3 4 3 2 6 6 2 6 7 7 6 6 7 6 6 6 6 5 5 3 1 4 6 7 7 9 9 10 9 9 11 10 10 9 9 10 14 15 15 14 14 12 12 13 11 14
3 2 2 2 5 5 6 5 3 2 6 7 6 6 6 5 5 5 5 5 4 4 3 2 2 4 5 7 8 8 9 10 10 10 10 9 9 8 10 12 14 15 15 15 14 13 14 12 13
3 5 2 3 4 5 6 6 3 3 2 4 5 5 5 4 5 5 5 5 4 3 2 1 1 2 4 5 6 6 8 9 9 9 11 11 11 9 9 11 13 14 15 15 15 13 12 14 13
5 3 4 4 4 3 5 5 3 2 3 4 4 5 5 4 4 3 4 5 4 5 4 3 2 2 3 4 5 6 7 8 8 9 10 11 10 10 11 11 12 13 15 15 15 15 13 15 14
1 3 4 4 6 4 5 7 2 4 4 5 5 4 4 3 2 3 4 5 5 6 6 5 4 3 3 4 5 6 7 7 7 9 10 9 10 10 11 11 12 13 14 14 16 17 16 16 16
Wind_Direction
270 253 244 254 252 254 275 107 90 105 91 65 59 360 345 17 33 129 174 168 134 141 145 155 152 151 148 143 138 133 126 119 113 106 99 94 88 84 79 75 72 68 64 60 58 56 55 53 52
280 250 249 249 259 273 289 78 86 73 77 90 88 284 268 91 101 124 160 151 144 144 147 156 155 155 153 150 147 142 136 130 124 116 109 102 96 90 84 79 76 72 68 63 59 57 55 52 50
271 253 247 244 254 260 280 75 81 82 96 145 167 237 315 99 128 147 158 146 148 147 152 157 158 159 158 157 154 149 144 139 134 126 119 111 104 96 89 83 78 73 70 65 61 57 54 52 49
252 228 242 249 265 277 21 81 98 119 138 219 226 185 127 90 127 144 147 153 151 150 148 155 161 163 163 162 160 156 152 147 142 136 129 120 112 105 96 89 83 78 72 67 62 56 53 50 47
238 245 243 253 261 264 124 93 102 167 175 186 221 252 129 101 104 128 149 162 156 154 146 159 166 167 167 167 165 163 159 155 151 146 139 132 124 117 109 100 91 84 76 69 62 55 50 47 44
249 251 260 262 268 272 137 130 144 227 260 167 173 248 127 137 133 141 159 167 160 155 148 160 171 171 171 172 171 169 166 163 159 155 150 144 137 131 125 116 104 93 84 73 65 56 46 44 41
277 267 267 278 290 305 8 118 161 212 273 204 153 208 130 169 149 145 160 171 164 158 152 158 173 173 175 176 176 174 172 169 166 163 159 154 149 145 139 132 123 110 97 85 72 60 46 39 38
313 295 280 278 284 297 62 113 81 326 286 96 148 211 157 168 142 143 158 177 171 163 161 161 172 173 174 177 180 178 177 175 172 170 165 163 160 154 154 150 145 136 124 109 88 63 47 35 37
283 267 271 278 294 317 83 143 164 115 302 249 175 121 88 127 138 148 161 186 183 175 176 168 174 175 175 176 185 181 180 180 176 173 173 168 166 163 173 168 165 166 163 153 137 78 346 287 5
236 252 264 283 324 342 342 281 261 181 228 235 199 130 128 139 156 170 179 187 190 187 183 183 180 176 175 181 175 172 176 175 168 161 168 178 198 172 169 166 178 187 195 198 204 228 247 264 358
246 249 272 304 6 356 316 295 274 250 246 233 216 181 161 166 175 187 194 195 195 189 185 187 189 175 174 173 165 174 175 169 177 172 172 191 183 149 154 154 180 195 207 215 212 230 229 213 127
259 282 288 304 33 319 283 284 276 242 240 254 281 196 167 177 188 195 199 199 192 189 191 189 186 178 174 170 168 174 175 172 182 180 174 180 172 170 176 181 177 188 194 204 202 215 197 194 205
247 261 283 295 277 250 268 274 279 266 260 256 252 241 171 189 198 203 203 200 193 193 191 191 187 183 176 171 174 178 176 172 176 177 177 175 173 179 185 193 189 191 188 184 207 218 202 198 204
317 318 293 266 245 241 253 269 265 261 247 242 237 223 193 195 201 203 206 205 200 194 191 188 189 185 179 181 180 182 178 170 176 178 184 182 178 180 189 193 192 194 192 187 196 209 199 205 201
306 282 273 243 208 218 287 271 237 248 243 242 232 218 208 203 198 206 208 208 204 193 187 186 189 186 184 186 187 187 184 177 183 182 187 190 188 185 187 193 191 194 191 191 194 211 195 212 210
230 250 260 196 170 149 170 270 261 306 281 245 231 223 211 207 204 206 206 203 203 193 186 185 187 189 189 188 190 192 191 187 189 186 189 194 195 190 188 192 193 188 186 185 186 199 191 211 211
217 257 296 27 175 175 208 267 281 290 283 271 248 233 226 219 209 206 202 197 195 194 184 182 184 188 189 187 188 196 197 198 193 193 191 194 196 195 191 193 193 186 185 186 195 197 193 202 208
340 333 328 320 244 222 255 276 293 298 293 297 309 305 271 261 236 206 197 192 187 187 182 178 181 183 184 184 188 197 209 207 200 199 196 191 195 196 195 195 195 188 187 191 195 196 196 200 198
333 309 298 295 349 326 277 287 297 304 350 22 23 18 10 354 346 360 176 177 172 176 179 177 181 184 184 190 196 201 208 208 207 203 199 195 194 195 197 200 198 195 196 196 193 187 195 201 179
289 285 287 297 18 315 281 289 284 259 93 74 56 48 34 16 12 14 68 144 168 176 182 180 183 186 191 198 201 204 203 208 212 209 207 200 196 196 201 202 201 200 198 198 197 190 187 194 181
279 285 308 327 327 279 269 298 252 127 110 92 72 63 53 38 27 16 27 142 172 185 188 193 191 191 194 193 190 199 204 210 213 213 212 207 201 200 202 205 204 204 202 206 202 194 191 197 194
286 15 347 325 322 308 337 305 286 156 121 105 84 63 51 41 38 32 22 13 205 204 193 194 195 195 192 189 199 203 210 219 220 215 213 211 209 207 206 205 207 208 208 210 207 203 199 188 195
307 349 288 290 290 288 255 236 279 183 130 112 97 73 51 40 36 31 32 12 346 199 190 193 198 202 195 196 203 211 224 230 230 219 217 215 215 215 212 209 209 212 212 212 209 207 203 203 200
304 289 253 238 261 264 228 209 285 13 106 103 86 68 48 37 33 25 20 17 18 47 158 186 205 217 208 204 207 212 224 228 230 228 226 221 218 217 217 213 213 214 215 214 211 210 210 209 209
237 291 304 229 219 232 115 232 253 346 89 91 80 61 49 44 36 25 20 15 14 15 162 194 212 232 226 217 217 220 223 225 231 232 230 227 225 221 216 214 216 217 217 214 210 213 215 211 210
295 311 312 300 294 322 235 238 252 98 99 100 93 77 58 51 43 32 23 18 14 14 10 231 220 229 229 227 227 226 226 226 233 233 232 233 231 225 212 211 215 216 215 216 213 216 217 214 216
279 224 52 324 288 269 250 243 256 108 106 95 85 71 62 55 46 34 19 15 15 14 4 350 278 244 233 229 230 230 228 228 232 232 233 238 238 230 215 209 211 213 214 215 213 219 219 216 217
289 328 306 242 267 280 275 256 228 136 82 81 79 75 72 65 47 31 8 360 360 359 337 344 309 274 253 241 237 235 232 232 233 232 235 237 239 236 226 216 213 213 214 215 216 220 218 216 218
176 206 228 260 273 273 288 280 5 37 78 68 69 75 77 65 43 21 357 348 350 351 342 331 307 284 268 256 251 252 247 242 239 239 241 239 239 234 232 226 220 218 217 215 217 221 215 218 218
144 243 242 247 264 257 273 275 318 102 83 68 66 63 73 67 32 2 352 344 344 341 333 330 320 307 287 270 263 261 259 254 248 247 247 242 242 238 235 231 227 224 220 215 216 220 217 216 217